Torna al catalogo

STARLINK-34960

AttivoComunicazioniVLEO
NORAD 65219·PAYLOAD·🇺🇸 United States

Lanciato Aug 14, 2025 da Cape Canaveral Space Force Station

Loading…

Prossimi Passaggi (prossime 24 ore)

TLE

AggiornatoSource: CelesTrak SupGP

Epoca: Sep 15, 2026, 03:00 UTC

1 65219C 25176X   26258.12548611  .00072914  00000+0  21537-2 0  2585
2 65219  53.1599 349.1792 0001167  88.1932 327.6538 15.34362095    11

Traccia STARLINK-34960 in tempo reale con AllMySat

Download on the App Store